Wind_Speed
22 25 21 17 14 17 43 42 41 41 46 47 46 44 43 41 44 42 39 40 38 39 35 39 43 44 34 29 20 19 14 9 5 9 12 10 16 22 21 20 17 15 15
25 21 16 13 17 17 35 41 41 40 42 46 45 42 41 40 42 41 38 37 39 39 43 38 38 44 41 31 26 23 19 13 6 11 12 13 12 16 16 16 14 13 13
27 24 24 18 21 22 25 38 42 43 42 42 45 43 42 42 40 39 39 37 40 40 42 46 42 41 41 34 29 26 23 19 12 11 10 13 11 14 16 15 14 14 15
29 26 22 25 23 26 11 35 41 42 43 43 44 43 43 42 42 43 40 36 35 35 38 42 41 43 43 39 33 30 25 22 18 14 11 12 12 11 13 14 15 14 15
24 21 23 26 24 23 12 15 38 42 43 45 42 40 40 41 41 41 39 38 37 34 35 40 40 40 40 42 39 35 30 25 22 19 14 11 12 11 15 12 15 14 14
27 29 29 27 27 22 14 6 29 38 40 41 41 42 41 40 41 43 42 40 38 38 36 36 36 36 37 37 39 38 38 33 27 24 19 15 18 15 14 14 9 9 4
25 24 25 27 25 26 18 10 11 33 37 39 39 39 39 40 43 47 46 38 38 39 40 39 39 39 36 35 36 36 33 31 29 26 25 24 18 17 17 12 16 15 12
23 26 28 27 25 27 22 18 10 26 35 37 36 37 37 39 43 48 49 39 38 38 40 42 42 43 40 40 36 34 32 30 28 25 20 17 15 15 13 13 15 13 12
26 28 29 28 26 25 24 22 14 7 26 34 37 37 35 34 42 49 47 37 34 35 38 40 43 44 40 38 36 36 32 29 26 24 20 17 15 14 12 13 12 11 6
26 27 26 25 24 23 24 22 15 9 8 24 30 34 37 34 42 49 48 36 33 31 32 40 44 43 39 41 41 37 33 32 28 23 20 16 14 12 11 13 13 12 7
26 25 24 24 24 23 24 20 17 11 10 21 27 30 33 36 40 48 50 38 34 33 33 34 43 44 42 40 39 38 36 31 27 24 20 18 16 14 15 14 11 11 11
26 25 26 27 25 23 24 21 16 9 10 14 24 23 29 33 36 46 51 43 37 36 34 37 44 47 46 42 40 35 32 28 26 26 23 23 20 20 15 11 9 8 7
26 28 28 30 26 24 22 21 18 14 7 7 16 21 24 29 32 43 50 48 38 36 34 38 39 44 40 36 36 34 31 29 29 31 30 30 25 18 16 13 10 8 6
26 26 25 26 25 25 23 20 17 14 11 1 12 13 17 24 28 35 43 46 36 35 31 32 39 40 38 37 35 31 31 31 33 35 33 27 22 21 18 14 13 11 8
24 23 22 21 22 21 22 19 17 13 12 9 4 8 14 19 27 37 40 41 37 36 35 33 33 33 30 31 31 33 31 30 32 30 28 29 26 23 20 17 15 13 7
23 21 22 20 21 19 20 22 19 13 11 6 8 12 14 18 24 36 45 45 38 41 34 31 30 31 31 32 32 33 32 33 31 30 30 30 30 27 24 19 16 13 11
22 23 21 22 20 19 18 16 16 22 12 7 7 7 13 16 21 35 43 44 45 41 29 31 31 33 32 33 33 35 31 34 31 31 31 30 28 26 23 21 18 15 12
25 21 21 21 19 19 17 18 16 14 13 16 12 4 10 14 19 33 41 39 38 33 28 31 31 33 33 34 34 34 34 35 33 32 32 31 29 29 27 24 20 16 13
24 21 21 18 20 17 19 18 17 14 14 14 15 7 4 10 15 33 42 35 34 28 30 27 30 33 34 34 33 36 39 39 36 34 32 31 30 30 28 24 19 15 14
22 20 21 18 20 18 17 16 16 14 13 14 14 14 9 8 15 29 32 28 27 24 29 31 32 34 36 37 38 37 37 35 37 35 34 32 31 30 29 26 22 19 14
16 23 20 19 17 17 17 16 17 15 12 13 15 13 11 2 14 19 18 24 26 27 28 31 34 36 38 39 38 39 38 38 38 36 34 33 32 31 28 25 21 17 15
24 20 19 18 18 18 15 15 17 16 13 11 13 12 8 1 11 14 17 21 23 27 31 32 33 38 42 44 43 43 43 41 40 38 37 36 34 31 29 26 22 18 15
20 19 19 19 17 15 17 15 15 16 15 12 9 8 7 4 8 16 19 20 20 23 26 30 32 33 35 38 42 46 47 45 43 40 39 38 36 33 30 27 23 19 16
17 16 15 16 17 15 16 15 14 13 11 11 11 10 8 5 8 15 19 21 21 23 26 29 32 35 36 38 39 40 41 41 39 38 40 40 37 33 29 25 21 18 16
16 16 15 16 17 15 15 15 13 11 10 8 8 8 6 5 7 13 17 21 23 24 24 26 29 31 33 35 36 36 36 38 40 41 39 37 36 32 29 24 21 17 15
15 15 14 14 14 14 12 11 10 9 9 8 7 6 4 5 7 12 17 21 24 25 25 25 27 29 30 31 31 33 35 38 39 38 37 36 35 32 27 24 19 18 17
Wind_Direction
328 359 343 306 278 278 187 184 187 184 184 186 189 188 188 188 191 193 193 194 195 198 208 206 203 204 206 201 193 201 203 196 125 172 194 201 199 210 218 229 234 243 252
347 351 346 337 318 306 193 185 186 185 186 187 189 190 190 192 192 193 193 194 196 198 206 209 206 207 209 199 190 198 202 196 167 161 188 193 199 203 212 224 231 239 253
355 350 351 355 354 319 204 184 184 187 188 187 189 190 190 191 191 194 195 195 197 200 202 209 210 208 207 198 192 194 199 196 190 178 167 191 197 202 209 220 230 240 254
354 351 351 358 344 309 296 189 183 185 187 190 192 192 193 193 194 196 197 197 197 201 203 206 206 210 208 203 195 198 200 195 192 181 177 184 199 205 218 227 233 245 256
343 342 354 357 338 313 306 214 189 186 190 193 191 194 194 195 196 196 197 199 197 196 202 210 213 214 214 214 205 201 204 199 194 190 185 187 195 200 216 232 240 249 258
338 353 349 349 342 325 344 309 199 186 186 187 190 191 192 196 198 195 193 194 196 195 196 202 210 212 216 220 219 215 211 202 201 198 201 207 214 217 226 229 235 246 259
346 345 345 340 337 342 353 322 252 192 185 187 188 190 193 196 198 199 197 197 196 196 195 193 200 211 213 221 222 223 220 222 230 222 215 222 230 235 234 237 238 237 246
346 340 345 337 339 346 349 358 321 203 188 185 187 190 193 196 198 199 198 195 196 197 197 195 197 203 206 215 217 220 221 220 222 223 230 240 247 248 244 244 248 248 250
340 339 337 332 343 341 342 348 348 293 198 188 188 188 191 194 197 197 192 193 195 192 192 193 198 202 205 214 214 214 212 214 219 225 230 235 235 236 235 237 235 226 241
333 328 330 335 345 340 338 337 334 310 248 191 184 190 192 193 199 196 191 188 188 187 189 197 204 199 201 210 210 207 209 212 210 206 206 209 212 212 217 230 233 223 212
326 331 334 343 348 354 339 339 333 342 292 197 187 188 193 193 197 196 191 190 191 187 189 191 199 201 206 209 215 209 209 209 202 202 200 205 212 219 217 215 217 222 219
329 337 340 346 354 353 347 342 344 337 273 198 182 187 193 194 196 197 196 195 195 191 191 194 198 200 207 209 208 209 211 209 198 196 197 199 201 198 190 191 200 208 212
339 341 344 346 352 354 348 337 342 352 338 205 185 189 189 189 194 197 194 194 195 193 194 195 194 201 202 202 203 204 204 202 194 194 200 202 199 194 181 170 173 171 163
337 339 338 342 345 354 349 341 338 348 342 241 190 193 185 182 188 192 195 197 200 195 191 187 193 196 195 194 193 200 203 206 202 199 198 196 185 181 177 179 174 174 166
333 334 336 340 335 340 342 332 334 338 326 311 248 194 194 190 193 190 187 187 189 186 176 171 165 166 170 179 183 191 194 193 191 194 192 183 181 181 178 182 182 175 172
331 330 332 337 333 340 338 334 346 342 339 306 272 226 214 213 205 196 191 189 184 183 176 170 175 176 174 172 172 176 184 188 188 188 189 185 184 182 179 177 182 176 167
326 323 330 334 334 337 337 334 331 342 1 2 340 218 212 221 218 202 194 190 188 176 174 171 171 174 176 173 172 171 176 187 185 188 186 184 182 180 176 174 173 168 154
336 331 331 325 329 330 337 327 328 330 335 337 358 321 189 207 216 199 185 171 167 175 175 173 171 171 170 169 169 168 173 178 181 183 183 182 182 181 175 172 170 163 155
333 325 329 330 327 334 341 328 323 332 339 338 355 356 221 194 205 193 176 172 175 175 172 173 171 167 165 166 167 169 173 175 179 179 180 181 181 180 173 169 162 163 157
328 332 334 331 328 334 340 329 325 334 340 340 345 351 349 163 185 173 174 176 177 174 170 169 169 167 167 166 166 167 168 170 176 179 180 180 176 176 170 166 167 162 154
332 331 334 332 327 329 335 332 328 330 335 339 338 346 342 193 166 176 177 175 174 172 170 169 167 168 168 168 166 167 169 172 177 178 177 174 171 169 169 167 162 159 149
340 338 333 325 330 328 334 342 334 330 337 337 333 340 351 350 158 164 165 169 173 175 178 173 169 172 175 175 173 171 172 172 176 175 173 169 165 165 166 164 161 154 147
339 338 339 335 331 331 336 347 342 341 357 1 354 354 13 45 159 171 169 174 176 177 177 178 173 169 174 176 179 180 177 177 176 174 168 164 164 167 167 163 159 153 148
342 340 336 332 331 337 339 337 346 345 347 349 351 8 18 61 141 162 164 166 168 169 172 175 178 176 174 175 178 179 178 174 171 170 169 165 164 165 162 161 159 156 154
343 341 337 336 335 336 338 339 342 350 344 350 357 8 29 70 129 149 158 159 158 160 164 169 171 172 173 174 174 174 171 170 168 168 167 164 162 161 160 160 161 158 154
343 342 343 337 337 339 331 328 335 350 353 353 6 14 44 94 129 144 152 154 151 151 154 158 162 166 166 166 165 163 165 166 165 165 163 160 157 157 158 160 158 150 144
Height
711 685 680 679 683 683 683 689 698 704 709 718 729 735 742 749 756 763 770 775 781 787 802 804 806 812 817 821 820 828 830 834 836 843 848 851 852 854 857 861 862 863 866
695 691 690 685 679 672 675 681 691 697 702 711 722 729 736 742 748 755 764 768 774 782 789 797 802 809 816 814 814 822 828 832 835 841 846 849 851 853 855 858 859 860 862
690 691 684 680 666 675 672 676 682 691 698 707 716 722 729 736 744 752 757 762 770 776 781 790 796 804 810 809 811 817 825 829 833 838 843 847 849 851 852 854 855 856 858
685 688 686 672 677 683 675 672 676 684 693 700 707 714 722 730 737 744 752 759 764 771 777 783 788 796 802 805 807 815 822 825 830 836 839 844 846 848 851 851 852 852 855
705 703 690 683 684 681 668 668 672 678 685 693 702 709 716 723 728 736 745 753 759 765 772 777 783 789 797 804 806 810 819 824 828 831 836 839 841 844 847 849 850 851 850
698 675 681 685 684 680 667 667 671 672 678 687 693 700 707 714 722 729 737 745 752 757 763 771 779 786 795 801 807 808 814 819 823 827 832 834 836 840 844 847 847 848 850
697 699 696 690 687 676 669 667 667 668 671 677 685 693 700 707 714 722 731 739 746 751 756 762 772 781 788 795 803 807 813 817 821 822 827 830 834 835 840 840 845 846 845
707 702 695 693 684 675 670 663 664 666 665 670 677 685 694 700 707 715 724 733 739 744 748 753 760 771 780 790 796 802 808 812 816 820 825 829 829 834 836 838 843 841 843
709 700 696 694 680 677 671 665 663 663 665 664 671 679 686 695 701 710 719 727 732 738 742 747 754 763 773 783 790 797 803 807 811 818 821 823 826 830 831 835 836 840 841
717 712 704 695 684 677 673 669 668 665 661 663 667 672 680 689 695 703 712 719 726 732 738 743 749 756 767 776 782 788 795 800 807 812 815 818 822 825 828 832 834 834 837
721 712 703 693 684 677 673 669 667 656 661 662 664 668 677 682 690 695 703 711 719 726 730 735 742 752 760 769 776 780 786 793 802 807 811 815 819 821 825 827 828 831 834
716 701 693 686 681 674 671 668 664 662 663 659 660 666 672 678 683 689 696 704 712 717 721 729 734 744 754 762 771 776 783 790 797 803 807 812 814 819 818 821 825 828 831
704 692 685 678 676 678 674 671 663 659 655 654 658 663 668 672 677 683 690 700 707 713 718 722 729 739 752 760 765 770 776 786 791 797 801 805 809 814 816 819 824 826 829
703 698 694 687 682 677 675 671 667 662 661 660 658 659 661 664 670 677 686 696 706 711 717 722 728 737 747 754 760 767 773 779 783 789 794 800 807 812 814 816 821 826 828
707 702 696 692 689 682 676 672 667 665 663 658 656 655 658 658 662 669 677 686 696 703 711 718 726 733 743 750 755 760 767 773 778 783 790 796 802 808 811 816 820 824 827
707 705 700 697 690 682 676 670 667 664 660 657 655 652 655 658 662 667 672 680 687 694 704 710 717 724 733 741 747 754 763 769 771 778 787 791 797 802 808 815 819 822 824
712 705 698 691 687 684 680 677 670 662 658 657 652 648 650 653 659 663 669 674 680 689 696 701 707 715 724 731 739 745 755 761 767 775 781 788 794 802 807 813 818 820 824
709 705 697 692 690 684 678 676 672 667 661 655 650 649 645 651 656 659 664 671 681 686 689 694 699 707 716 724 733 739 747 756 765 772 779 785 791 797 804 811 816 819 823
708 704 700 696 694 685 678 677 674 669 661 656 652 649 646 647 651 656 660 665 671 677 683 690 695 701 709 719 728 734 741 751 760 768 776 782 789 797 803 810 814 819 822
709 705 699 695 692 684 680 679 675 666 662 658 653 650 647 646 651 653 658 663 668 673 678 684 691 698 705 713 721 731 741 750 757 765 772 779 786 794 801 807 813 817 820
710 703 696 694 690 683 678 675 672 667 662 659 656 653 651 648 648 654 658 661 664 669 675 680 687 695 702 710 718 728 737 746 754 762 770 777 784 793 801 807 812 816 818
708 703 698 693 686 682 680 677 673 669 664 661 660 657 654 652 649 655 657 661 664 668 672 679 685 692 697 703 712 722 732 741 750 758 767 774 782 792 799 806 810 813 818
701 695 689 687 688 685 680 675 674 670 663 664 664 660 656 654 652 657 658 662 664 668 673 679 685 691 698 705 712 717 724 735 744 753 763 771 781 791 797 803 806 811 817
699 696 696 693 688 681 679 676 673 671 668 668 666 661 659 656 658 659 660 661 664 669 673 679 685 691 699 704 711 719 727 734 743 753 762 771 780 788 795 802 807 812 818
699 697 693 688 685 680 677 676 674 672 672 669 667 664 662 660 661 661 662 663 664 669 675 681 686 692 699 705 713 720 727 735 744 752 762 770 778 787 795 801 808 813 818
700 696 691 690 685 683 684 683 679 674 672 670 668 667 666 663 665 665 665 667 666 670 676 682 688 695 702 709 716 724 733 740 747 755 762 770 780 788 796 803 808 812 818